Location: Eyeline Observatory
(43.2182°N, 78.8632°W)
Time: 03:07:01
(UTC-05:00)

Vanguard 2 - Visible Passes

Search period start: 19 February 2018 00:00
Search period end: 01 March 2018 00:00
Orbit: 553 x 2939 km, 32.9° (Epoch: 18 February)

Date Brightness Start Highest point End Pass type
(mag) Time Alt. Az. Time Alt. Az. Time Alt. Az.
19 Feb 8.9 19:45:34 10° WSW 19:52:49 33° S 19:54:32 29° SSE visible
20 Feb 8.8 20:03:33 10° WSW 20:10:42 33° S 20:11:46 31° S visible
21 Feb 9.7 18:10:22 10° WSW 18:20:12 38° S 18:26:27 10° ESE visible
21 Feb 9.0 20:21:39 10° WSW 20:28:32 31° SSW 20:28:58 31° S visible
22 Feb 9.6 18:28:13 10° WSW 18:38:09 40° S 18:44:23 10° ESE visible
22 Feb 9.3 20:39:51 10° WSW 20:46:11 28° SSW 20:46:11 28° SSW visible
23 Feb 9.5 18:46:12 10° WSW 18:56:05 41° S 19:01:57 11° ESE visible
23 Feb 9.6 20:58:12 10° WSW 21:03:24 23° SW 21:03:24 23° SW visible
24 Feb 9.5 19:04:17 10° WSW 19:13:58 40° SSW 19:19:11 15° SE visible
24 Feb 10.0 21:16:45 10° WSW 21:20:37 18° SW 21:20:37 18° SW visible
25 Feb 9.6 19:22:27 10° W 19:31:47 37° SSW 19:36:25 17° SE visible
25 Feb 10.3 21:35:50 10° WSW 21:37:52 13° SW 21:37:52 13° SW visible
26 Feb 9.6 19:40:43 10° W 19:49:31 33° SSW 19:53:41 18° SSE visible
27 Feb 9.7 19:59:06 10° W 20:07:10 28° SSW 20:10:57 18° SSE visible
28 Feb 10.0 20:17:41 10° W 20:24:42 22° SW 20:28:16 15° S visible
